RIU267 LSZH-LWSK

Flight info

Callsign RIU267
Flight time 1h 51m
Altitude 35000
Route DEGES Z2 TUNUM Z204 GEDSO DCT VEKEN/N0452F370 DCT MAVAR DCT GOSTI
Aircraft B738/M-SDE2E3FGHIRWXY/LB1

Departure

Time 2026-04-17 13:19
Airport Zürich Airport (LSZH)

Arrival

Time 2026-04-17 15:10
Airport Skopje International Airport (LWSK)
Time Latitude Longitude Altitude Speed Heading
2026-04-17 12:38 47.45407 8.56118 1411 ft 0 kts 186°
2026-04-17 13:07 47.45408 8.56118 1410 ft 1 kts 186°
2026-04-17 13:07 47.45431 8.56121 1410 ft 2 kts 185°
2026-04-17 13:07 47.45456 8.56124 1409 ft 3 kts 185°
2026-04-17 13:07 47.45467 8.56125 1409 ft 0 kts 178°
2026-04-17 13:08 47.45472 8.56124 1409 ft 0 kts 178°
2026-04-17 13:09 47.45471 8.56123 1409 ft 0 kts 199°
2026-04-17 13:09 47.45477 8.56095 1408 ft 7 kts 287°
2026-04-17 13:09 47.45489 8.55983 1404 ft 12 kts 282°
2026-04-17 13:09 47.45501 8.55851 1401 ft 13 kts 276°
2026-04-17 13:10 47.45512 8.55705 1398 ft 14 kts 276°
2026-04-17 13:10 47.45524 8.55550 1395 ft 15 kts 276°
2026-04-17 13:10 47.45536 8.55383 1391 ft 17 kts 275°
2026-04-17 13:10 47.45538 8.55337 1390 ft 3 kts 275°
2026-04-17 13:11 47.45540 8.55308 1389 ft 0 kts 275°
2026-04-17 13:11 47.45540 8.55306 1389 ft 0 kts 275°
2026-04-17 13:11 47.45540 8.55307 1389 ft 0 kts 275°
2026-04-17 13:11 47.45536 8.55329 1389 ft 0 kts 313°
2026-04-17 13:12 47.45557 8.55309 1389 ft 7 kts 330°
2026-04-17 13:12 47.45701 8.55174 1385 ft 14 kts 327°
2026-04-17 13:12 47.45799 8.55095 1385 ft 15 kts 335°
2026-04-17 13:13 47.45896 8.55027 1383 ft 15 kts 335°
2026-04-17 13:13 47.45995 8.54959 1381 ft 18 kts 334°
2026-04-17 13:13 47.46118 8.54873 1381 ft 19 kts 336°
2026-04-17 13:13 47.46238 8.54791 1381 ft 18 kts 335°
2026-04-17 13:14 47.46347 8.54714 1381 ft 16 kts 335°
2026-04-17 13:14 47.46449 8.54645 1381 ft 15 kts 336°
2026-04-17 13:14 47.46545 8.54581 1381 ft 14 kts 335°
2026-04-17 13:14 47.46646 8.54511 1381 ft 19 kts 335°
2026-04-17 13:15 47.46792 8.54423 1380 ft 23 kts 338°
2026-04-17 13:15 47.46939 8.54326 1380 ft 22 kts 336°
2026-04-17 13:15 47.47074 8.54233 1379 ft 21 kts 336°
2026-04-17 13:15 47.47204 8.54144 1378 ft 20 kts 336°
2026-04-17 13:16 47.47321 8.54062 1381 ft 17 kts 334°
2026-04-17 13:16 47.47427 8.53986 1381 ft 15 kts 335°
2026-04-17 13:16 47.47519 8.53923 1383 ft 13 kts 335°
2026-04-17 13:16 47.47588 8.53861 1385 ft 9 kts 312°
2026-04-17 13:17 47.47610 8.53788 1386 ft 0 kts 276°
2026-04-17 13:17 47.47610 8.53787 1386 ft 0 kts 276°
2026-04-17 13:17 47.47601 8.53725 1386 ft 11 kts 248°
2026-04-17 13:18 47.47559 8.53632 1386 ft 10 kts 207°
2026-04-17 13:18 47.47471 8.53660 1384 ft 18 kts 155°
2026-04-17 13:18 47.47231 8.53827 1381 ft 72 kts 155°
2026-04-17 13:18 47.46535 8.54307 1381 ft 145 kts 155°
2026-04-17 13:19 47.45473 8.55000 1720 ft 177 kts 156°
2026-04-17 13:19 47.44316 8.55652 2432 ft 191 kts 156°
2026-04-17 13:19 47.43074 8.56691 2901 ft 220 kts 140°
2026-04-17 13:19 47.42009 8.58406 3430 ft 237 kts 121°
2026-04-17 13:20 47.41408 8.60696 4110 ft 247 kts 98°
2026-04-17 13:20 47.41429 8.63289 4749 ft 260 kts 78°
2026-04-17 13:20 47.42167 8.65680 5513 ft 266 kts 50°
2026-04-17 13:20 47.43599 8.67513 6058 ft 283 kts 34°
2026-04-17 13:21 47.45246 8.69232 6766 ft 293 kts 44°
2026-04-17 13:21 47.46430 8.71676 7521 ft 302 kts 65°
2026-04-17 13:21 47.46889 8.74739 8231 ft 311 kts 86°
2026-04-17 13:21 47.46966 8.77895 9128 ft 313 kts 89°
2026-04-17 13:22 47.46850 8.81078 10032 ft 315 kts 97°
2026-04-17 13:22 47.46429 8.84254 10933 ft 315 kts 103°
2026-04-17 13:22 47.45933 8.87415 11445 ft 329 kts 102°
2026-04-17 13:22 47.45425 8.90796 11878 ft 344 kts 102°
2026-04-17 13:23 47.44919 8.94327 12261 ft 361 kts 101°
2026-04-17 13:23 47.44384 8.98055 12662 ft 376 kts 101°
2026-04-17 13:23 47.43839 9.01856 13127 ft 388 kts 101°
2026-04-17 13:23 47.43279 9.05791 13913 ft 392 kts 101°
2026-04-17 13:24 47.42712 9.09730 14656 ft 396 kts 101°
2026-04-17 13:24 47.42142 9.13668 15358 ft 400 kts 101°
2026-04-17 13:24 47.41556 9.17701 16091 ft 404 kts 101°
2026-04-17 13:24 47.41042 9.21803 16771 ft 409 kts 97°
2026-04-17 13:25 47.40697 9.25966 17456 ft 412 kts 95°
2026-04-17 13:25 47.40450 9.30128 18111 ft 416 kts 93°
2026-04-17 13:25 47.40237 9.34386 18731 ft 421 kts 92°
2026-04-17 13:25 47.40024 9.38722 19341 ft 424 kts 92°
2026-04-17 13:26 47.39796 9.43076 19928 ft 428 kts 93°
2026-04-17 13:26 47.39547 9.47460 20433 ft 432 kts 93°
2026-04-17 13:26 47.39286 9.51873 20908 ft 436 kts 93°
2026-04-17 13:26 47.39013 9.56345 21430 ft 438 kts 93°
2026-04-17 13:27 47.38736 9.60813 21876 ft 442 kts 93°
2026-04-17 13:27 47.38456 9.65300 22383 ft 444 kts 94°
2026-04-17 13:27 47.38166 9.69882 22831 ft 448 kts 94°
2026-04-17 13:27 47.37876 9.74458 23289 ft 451 kts 94°
2026-04-17 13:28 47.37583 9.79057 23754 ft 454 kts 94°
2026-04-17 13:28 47.37288 9.83662 24220 ft 457 kts 94°
2026-04-17 13:28 47.36985 9.88361 24664 ft 461 kts 94°
2026-04-17 13:28 47.36684 9.93014 25090 ft 464 kts 94°
2026-04-17 13:29 47.36376 9.97754 25547 ft 467 kts 94°
2026-04-17 13:29 47.36060 10.02575 25938 ft 471 kts 94°
2026-04-17 13:29 47.35743 10.07347 26399 ft 473 kts 94°
2026-04-17 13:29 47.35418 10.12182 26776 ft 477 kts 94°
2026-04-17 13:30 47.35088 10.17052 27156 ft 481 kts 94°
2026-04-17 13:30 47.34757 10.21935 27556 ft 484 kts 94°
2026-04-17 13:30 47.34403 10.26880 27944 ft 487 kts 94°
2026-04-17 13:30 47.34046 10.31912 28391 ft 488 kts 94°
2026-04-17 13:31 47.33704 10.36864 28962 ft 487 kts 93°
2026-04-17 13:31 47.33362 10.41857 29409 ft 488 kts 93°
2026-04-17 13:31 47.33021 10.46848 29919 ft 487 kts 93°
2026-04-17 13:31 47.32681 10.51773 30588 ft 482 kts 93°
2026-04-17 13:32 47.32343 10.56615 31204 ft 478 kts 93°
2026-04-17 13:32 47.32003 10.61450 31588 ft 479 kts 93°
2026-04-17 13:32 47.31661 10.66329 31876 ft 482 kts 94°
2026-04-17 13:32 47.31308 10.71279 32129 ft 486 kts 94°
2026-04-17 13:33 47.30950 10.76243 32603 ft 483 kts 94°
2026-04-17 13:33 47.30593 10.81117 33242 ft 478 kts 94°
2026-04-17 13:33 47.30238 10.85938 33731 ft 475 kts 93°
2026-04-17 13:33 47.29882 10.90753 34034 ft 476 kts 93°
2026-04-17 13:34 47.29528 10.95550 34370 ft 476 kts 93°
2026-04-17 13:34 47.29166 11.00420 34704 ft 476 kts 93°
2026-04-17 13:34 47.28807 11.05263 35014 ft 475 kts 93°
2026-04-17 13:34 47.28448 11.10081 35336 ft 474 kts 93°
2026-04-17 13:35 47.28089 11.14858 35631 ft 473 kts 93°
2026-04-17 13:35 47.27724 11.19654 35904 ft 473 kts 93°
2026-04-17 13:35 47.27355 11.24475 36166 ft 472 kts 93°
2026-04-17 13:35 47.26994 11.29219 36516 ft 468 kts 93°
2026-04-17 13:36 47.26634 11.33902 36923 ft 465 kts 93°
2026-04-17 13:36 47.26265 11.38683 37053 ft 468 kts 93°
2026-04-17 13:36 47.25885 11.43376 37190 ft 471 kts 94°
2026-04-17 13:36 47.25379 11.48134 37227 ft 474 kts 99°
2026-04-17 13:37 47.24359 11.52806 37236 ft 477 kts 112°
2026-04-17 13:37 47.22757 11.57027 37258 ft 479 kts 120°
2026-04-17 13:37 47.18976 11.65031 37269 ft 480 kts 125°
2026-04-17 13:38 47.15001 11.72929 37242 ft 480 kts 126°
2026-04-17 13:38 47.11073 11.80801 37235 ft 479 kts 125°
2026-04-17 13:39 47.07354 11.88929 37240 ft 478 kts 118°
2026-04-17 13:39 47.04250 11.97528 37251 ft 477 kts 114°
2026-04-17 13:40 47.01391 12.06244 37254 ft 476 kts 113°
2026-04-17 13:40 46.98548 12.14972 37235 ft 477 kts 113°
2026-04-17 13:41 46.95675 12.23645 37224 ft 477 kts 114°
2026-04-17 13:41 46.92754 12.32329 37224 ft 477 kts 114°
2026-04-17 13:42 46.89788 12.41049 37235 ft 478 kts 114°
2026-04-17 13:42 46.86814 12.49742 37251 ft 479 kts 114°
2026-04-17 13:43 46.83876 12.58359 37251 ft 478 kts 114°
2026-04-17 13:43 46.80908 12.67052 37220 ft 478 kts 115°
2026-04-17 13:44 46.77932 12.75722 37204 ft 479 kts 115°
2026-04-17 13:44 46.74949 12.84377 37219 ft 479 kts 114°
2026-04-17 13:45 46.71958 12.93000 37220 ft 479 kts 114°
2026-04-17 13:45 46.68905 13.01653 37206 ft 480 kts 115°
2026-04-17 13:46 46.65853 13.10265 36744 ft 479 kts 115°
2026-04-17 13:46 46.62865 13.18887 36882 ft 482 kts 114°
2026-04-17 13:47 46.61358 13.23257 37177 ft 481 kts 114°
2026-04-17 13:47 46.59878 13.27539 37191 ft 481 kts 114°
2026-04-17 13:47 46.56849 13.36135 37207 ft 478 kts 117°
2026-04-17 13:48 46.53049 13.44049 37190 ft 483 kts 129°
2026-04-17 13:48 46.48572 13.51329 37189 ft 483 kts 131°
2026-04-17 13:49 46.44067 13.58481 37184 ft 482 kts 130°
2026-04-17 13:49 46.39584 13.65695 37188 ft 482 kts 131°
2026-04-17 13:50 46.35124 13.72968 37187 ft 482 kts 130°
2026-04-17 13:50 46.30725 13.80174 37185 ft 482 kts 130°
2026-04-17 13:51 46.26297 13.87434 37174 ft 481 kts 130°
2026-04-17 13:51 46.21880 13.94664 37176 ft 480 kts 130°
2026-04-17 13:52 46.17495 14.01825 37177 ft 481 kts 130°
2026-04-17 13:52 46.13054 14.09055 37168 ft 480 kts 130°
2026-04-17 13:53 46.08638 14.16222 37160 ft 480 kts 130°
2026-04-17 13:53 46.04225 14.23358 37153 ft 479 kts 130°
2026-04-17 13:54 45.97562 14.34115 37149 ft 479 kts 130°
2026-04-17 13:55 45.90904 14.44813 37154 ft 479 kts 130°
2026-04-17 13:56 45.82014 14.59044 37156 ft 479 kts 130°
2026-04-17 13:56 45.77581 14.66094 37154 ft 478 kts 131°
2026-04-17 13:57 45.73125 14.73173 37153 ft 480 kts 131°
2026-04-17 13:58 45.66361 14.83725 37149 ft 479 kts 131°
2026-04-17 13:58 45.59717 14.94261 37153 ft 478 kts 130°
2026-04-17 13:59 45.53057 15.04831 37146 ft 479 kts 131°
2026-04-17 14:00 45.48563 15.11890 37144 ft 479 kts 131°
2026-04-17 14:00 45.44084 15.18901 37147 ft 479 kts 131°
2026-04-17 14:01 45.39637 15.25839 37140 ft 479 kts 131°
2026-04-17 14:01 45.35153 15.32813 37135 ft 479 kts 131°
2026-04-17 14:02 45.30628 15.39829 37130 ft 479 kts 131°
2026-04-17 14:02 45.26150 15.46758 37134 ft 479 kts 131°
2026-04-17 14:03 45.21635 15.53735 37132 ft 478 kts 131°
2026-04-17 14:03 45.17132 15.60669 37133 ft 479 kts 131°
2026-04-17 14:04 45.12648 15.67565 37133 ft 478 kts 131°
2026-04-17 14:04 45.08123 15.74506 37131 ft 478 kts 131°
2026-04-17 14:05 45.03627 15.81388 37128 ft 478 kts 131°
2026-04-17 14:05 44.99116 15.88275 37128 ft 478 kts 131°
2026-04-17 14:06 44.94610 15.95132 37128 ft 478 kts 131°
2026-04-17 14:06 44.90121 16.01940 37132 ft 478 kts 131°
2026-04-17 14:07 44.85588 16.08805 37129 ft 479 kts 131°
2026-04-17 14:07 44.83316 16.12239 36931 ft 480 kts 131°
2026-04-17 14:07 44.81059 16.15645 36629 ft 479 kts 131°
2026-04-17 14:07 44.78774 16.19085 36335 ft 476 kts 131°
2026-04-17 14:08 44.76532 16.22459 36107 ft 476 kts 131°
2026-04-17 14:08 44.74248 16.25887 35760 ft 478 kts 131°
2026-04-17 14:08 44.71975 16.29293 35343 ft 482 kts 131°
2026-04-17 14:08 44.69675 16.32739 35012 ft 483 kts 131°
2026-04-17 14:09 44.67403 16.36138 34724 ft 483 kts 131°
2026-04-17 14:09 44.65112 16.39563 34342 ft 480 kts 131°
2026-04-17 14:09 44.62831 16.42969 33598 ft 482 kts 131°
2026-04-17 14:09 44.60514 16.46427 32753 ft 486 kts 131°
2026-04-17 14:10 44.58229 16.49833 32010 ft 487 kts 131°
2026-04-17 14:10 44.55920 16.53269 31277 ft 488 kts 131°
2026-04-17 14:10 44.53596 16.56723 30497 ft 489 kts 131°
2026-04-17 14:10 44.51255 16.60200 29720 ft 489 kts 131°
2026-04-17 14:11 44.48928 16.63648 28861 ft 491 kts 131°
2026-04-17 14:11 44.46575 16.67128 27981 ft 492 kts 132°
2026-04-17 14:11 44.44244 16.70569 27123 ft 492 kts 132°
2026-04-17 14:11 44.41872 16.74068 26228 ft 493 kts 132°
2026-04-17 14:12 44.39518 16.77532 25367 ft 492 kts 132°
2026-04-17 14:12 44.37194 16.80950 24811 ft 485 kts 132°
2026-04-17 14:12 44.34900 16.84320 24138 ft 480 kts 132°
2026-04-17 14:13 44.30341 16.91006 22821 ft 470 kts 132°
2026-04-17 14:13 44.28120 16.94258 22194 ft 465 kts 132°
2026-04-17 14:13 44.25906 16.97496 21532 ft 461 kts 132°
2026-04-17 14:13 44.23717 17.00695 20883 ft 456 kts 132°
2026-04-17 14:14 44.21536 17.03877 20268 ft 451 kts 132°
2026-04-17 14:14 44.19395 17.06998 19637 ft 447 kts 132°
2026-04-17 14:14 44.17254 17.10117 19022 ft 442 kts 132°
2026-04-17 14:14 44.15145 17.13189 18404 ft 438 kts 132°
2026-04-17 14:15 44.13050 17.16242 17851 ft 435 kts 131°
2026-04-17 14:15 44.10973 17.19271 17691 ft 433 kts 131°
2026-04-17 14:15 44.08886 17.22310 17472 ft 431 kts 132°
2026-04-17 14:15 44.06830 17.25296 17247 ft 430 kts 132°
2026-04-17 14:16 44.04765 17.28291 17137 ft 425 kts 132°
2026-04-17 14:16 44.02759 17.31192 17133 ft 418 kts 132°
2026-04-17 14:16 44.00760 17.34081 17133 ft 411 kts 132°
2026-04-17 14:16 43.98809 17.36901 17130 ft 405 kts 132°
2026-04-17 14:17 43.96869 17.39706 17125 ft 399 kts 132°
2026-04-17 14:17 43.94949 17.42479 17135 ft 394 kts 132°
2026-04-17 14:17 43.93047 17.45221 17138 ft 402 kts 132°
2026-04-17 14:17 43.91077 17.48061 17140 ft 421 kts 132°
2026-04-17 14:18 43.89007 17.51040 17140 ft 428 kts 132°
2026-04-17 14:18 43.86946 17.53999 17137 ft 429 kts 132°
2026-04-17 14:18 43.84878 17.56961 17129 ft 429 kts 132°
2026-04-17 14:18 43.82804 17.59927 17121 ft 429 kts 132°
2026-04-17 14:19 43.80732 17.62889 17117 ft 429 kts 132°
2026-04-17 14:19 43.78651 17.65862 17115 ft 429 kts 133°
2026-04-17 14:19 43.76559 17.68848 17115 ft 429 kts 133°
2026-04-17 14:19 43.74494 17.71793 17113 ft 430 kts 133°
2026-04-17 14:20 43.72423 17.74741 17106 ft 429 kts 133°
2026-04-17 14:20 43.70334 17.77711 17110 ft 430 kts 133°
2026-04-17 14:20 43.68262 17.80655 17118 ft 429 kts 133°
2026-04-17 14:20 43.66182 17.83610 17120 ft 429 kts 133°
2026-04-17 14:21 43.64092 17.86575 17107 ft 430 kts 133°
2026-04-17 14:21 43.62006 17.89531 17101 ft 429 kts 133°
2026-04-17 14:21 43.59936 17.92462 17106 ft 430 kts 133°
2026-04-17 14:21 43.57856 17.95407 17093 ft 429 kts 133°
2026-04-17 14:22 43.55770 17.98353 17100 ft 429 kts 133°
2026-04-17 14:22 43.53675 18.01310 17099 ft 430 kts 133°
2026-04-17 14:22 43.51608 18.04221 17097 ft 429 kts 133°
2026-04-17 14:22 43.49516 18.07163 17099 ft 429 kts 133°
2026-04-17 14:23 43.47416 18.10115 17090 ft 430 kts 133°
2026-04-17 14:23 43.45341 18.13029 17092 ft 429 kts 133°
2026-04-17 14:23 43.43238 18.15982 17072 ft 428 kts 133°
2026-04-17 14:23 43.41169 18.18884 17081 ft 429 kts 133°
2026-04-17 14:24 43.39065 18.21825 17079 ft 429 kts 133°
2026-04-17 14:24 43.36974 18.24732 17091 ft 429 kts 133°
2026-04-17 14:24 43.34876 18.27659 17081 ft 429 kts 133°
2026-04-17 14:24 43.32807 18.30551 17098 ft 428 kts 133°
2026-04-17 14:25 43.30730 18.33454 17090 ft 426 kts 133°
2026-04-17 14:25 43.28661 18.36339 17090 ft 429 kts 133°
2026-04-17 14:25 43.26553 18.39278 17092 ft 425 kts 133°
2026-04-17 14:25 43.24499 18.42133 17082 ft 419 kts 133°
2026-04-17 14:26 43.22478 18.44942 17075 ft 412 kts 133°
2026-04-17 14:26 43.20475 18.47724 17079 ft 406 kts 133°
2026-04-17 14:26 43.18522 18.50434 17086 ft 401 kts 133°
2026-04-17 14:26 43.16569 18.53141 17091 ft 408 kts 133°
2026-04-17 14:27 43.14521 18.55978 17091 ft 425 kts 133°
2026-04-17 14:27 43.12430 18.58870 17090 ft 428 kts 133°
2026-04-17 14:27 43.10328 18.61771 17085 ft 427 kts 133°
2026-04-17 14:27 43.08244 18.64643 17077 ft 427 kts 133°
2026-04-17 14:28 43.06142 18.67538 17080 ft 427 kts 134°
2026-04-17 14:28 43.04059 18.70404 17086 ft 427 kts 134°
2026-04-17 14:28 43.01965 18.73286 17083 ft 426 kts 134°
2026-04-17 14:28 42.99867 18.76174 17074 ft 427 kts 134°
2026-04-17 14:29 42.97778 18.79044 17071 ft 427 kts 134°
2026-04-17 14:29 42.95679 18.81924 17083 ft 426 kts 134°
2026-04-17 14:29 42.93612 18.84756 17078 ft 425 kts 134°
2026-04-17 14:29 42.91552 18.87571 17060 ft 414 kts 134°
2026-04-17 14:30 42.89553 18.90297 17011 ft 404 kts 134°
2026-04-17 14:30 42.87563 18.93007 16955 ft 395 kts 134°
2026-04-17 14:30 42.85621 18.95656 16950 ft 400 kts 134°
2026-04-17 14:30 42.83656 18.98336 16954 ft 405 kts 134°
2026-04-17 14:31 42.81654 19.01057 16955 ft 405 kts 134°
2026-04-17 14:31 42.79660 19.03765 16956 ft 404 kts 134°
2026-04-17 14:31 42.77661 19.06475 16964 ft 405 kts 134°
2026-04-17 14:31 42.75671 19.09168 16965 ft 405 kts 134°
2026-04-17 14:32 42.73677 19.11870 16953 ft 405 kts 134°
2026-04-17 14:32 42.71671 19.14582 16951 ft 405 kts 134°
2026-04-17 14:32 42.69671 19.17286 16941 ft 405 kts 134°
2026-04-17 14:32 42.67694 19.19959 16941 ft 405 kts 134°
2026-04-17 14:33 42.65697 19.22655 16931 ft 405 kts 134°
2026-04-17 14:33 42.63693 19.25359 16932 ft 405 kts 134°
2026-04-17 14:33 42.61701 19.28045 16921 ft 405 kts 134°
2026-04-17 14:33 42.59710 19.30727 16930 ft 405 kts 134°
2026-04-17 14:34 42.57712 19.33413 16927 ft 405 kts 134°
2026-04-17 14:34 42.55712 19.36104 16932 ft 405 kts 134°
2026-04-17 14:34 42.53710 19.38794 16925 ft 404 kts 134°
2026-04-17 14:34 42.51707 19.41482 16939 ft 404 kts 134°
2026-04-17 14:35 42.49703 19.44171 16965 ft 405 kts 134°
2026-04-17 14:35 42.47709 19.46840 16944 ft 404 kts 134°
2026-04-17 14:35 42.45708 19.49514 16944 ft 404 kts 134°
2026-04-17 14:35 42.43716 19.52175 16931 ft 402 kts 134°
2026-04-17 14:36 42.41777 19.54762 16946 ft 387 kts 134°
2026-04-17 14:36 42.39867 19.57313 16938 ft 382 kts 134°
2026-04-17 14:36 42.37980 19.59833 16934 ft 388 kts 134°
2026-04-17 14:36 42.36046 19.62409 16927 ft 390 kts 134°
2026-04-17 14:37 42.34133 19.64945 16926 ft 387 kts 134°
2026-04-17 14:37 42.32187 19.67526 16917 ft 386 kts 135°
2026-04-17 14:37 42.30267 19.70070 16930 ft 385 kts 135°
2026-04-17 14:37 42.28365 19.72587 17019 ft 387 kts 135°
2026-04-17 14:38 42.26458 19.75113 16970 ft 388 kts 135°
2026-04-17 14:38 42.24531 19.77662 16754 ft 385 kts 135°
2026-04-17 14:38 42.22626 19.80183 16537 ft 382 kts 135°
2026-04-17 14:38 42.20729 19.82692 16330 ft 382 kts 135°
2026-04-17 14:39 42.18850 19.85174 16126 ft 380 kts 135°
2026-04-17 14:39 42.16954 19.87678 15908 ft 378 kts 135°
2026-04-17 14:39 42.15095 19.90132 15703 ft 377 kts 135°
2026-04-17 14:39 42.13197 19.92631 15494 ft 376 kts 135°
2026-04-17 14:40 42.11356 19.95055 15299 ft 374 kts 135°
2026-04-17 14:40 42.09498 19.97499 15094 ft 373 kts 135°
2026-04-17 14:40 42.07630 19.99954 14891 ft 372 kts 135°
2026-04-17 14:40 42.05799 20.02360 14703 ft 372 kts 134°
2026-04-17 14:41 42.03941 20.04800 14514 ft 374 kts 134°
2026-04-17 14:41 42.02068 20.07253 14328 ft 373 kts 134°
2026-04-17 14:41 42.00222 20.09666 14143 ft 372 kts 135°
2026-04-17 14:41 41.98352 20.12089 13951 ft 370 kts 135°
2026-04-17 14:42 41.96514 20.14461 13767 ft 370 kts 135°
2026-04-17 14:42 41.94647 20.16882 13567 ft 368 kts 135°
2026-04-17 14:42 41.92836 20.19233 13377 ft 368 kts 135°
2026-04-17 14:42 41.90987 20.21638 13171 ft 366 kts 134°
2026-04-17 14:43 41.89189 20.23981 12922 ft 357 kts 134°
2026-04-17 14:43 41.87436 20.26266 12696 ft 344 kts 134°
2026-04-17 14:43 41.85743 20.28477 12561 ft 330 kts 134°
2026-04-17 14:43 41.84152 20.30557 12447 ft 316 kts 134°
2026-04-17 14:44 41.82597 20.32589 12359 ft 302 kts 134°
2026-04-17 14:44 41.81139 20.34500 12238 ft 291 kts 134°
2026-04-17 14:44 41.79704 20.36377 11901 ft 288 kts 134°
2026-04-17 14:44 41.78260 20.38255 11539 ft 286 kts 134°
2026-04-17 14:45 41.76854 20.40092 11344 ft 282 kts 134°
2026-04-17 14:45 41.75444 20.41932 11433 ft 285 kts 134°
2026-04-17 14:45 41.74009 20.43791 11441 ft 287 kts 134°
2026-04-17 14:45 41.72564 20.45650 11445 ft 291 kts 134°
2026-04-17 14:46 41.71071 20.47563 11438 ft 304 kts 134°
2026-04-17 14:46 41.69511 20.49582 11434 ft 318 kts 131°
2026-04-17 14:46 41.68236 20.51948 11429 ft 316 kts 115°
2026-04-17 14:46 41.67649 20.54760 11434 ft 312 kts 91°
2026-04-17 14:47 41.67928 20.57581 11443 ft 310 kts 74°
2026-04-17 14:47 41.68573 20.60326 11328 ft 306 kts 70°
2026-04-17 14:47 41.69292 20.62974 10923 ft 303 kts 69°
2026-04-17 14:47 41.70016 20.65626 10567 ft 303 kts 70°
2026-04-17 14:48 41.70715 20.68301 10665 ft 310 kts 71°
2026-04-17 14:48 41.71402 20.71051 10686 ft 316 kts 71°
2026-04-17 14:48 41.72084 20.73844 10695 ft 316 kts 71°
2026-04-17 14:48 41.72770 20.76659 10690 ft 316 kts 71°
2026-04-17 14:49 41.73455 20.79462 10691 ft 316 kts 71°
2026-04-17 14:49 41.74137 20.82255 10697 ft 317 kts 71°
2026-04-17 14:49 41.74818 20.85045 10687 ft 317 kts 71°
2026-04-17 14:49 41.75496 20.87834 10567 ft 314 kts 71°
2026-04-17 14:50 41.76157 20.90547 10479 ft 299 kts 71°
2026-04-17 14:50 41.76788 20.93133 10380 ft 287 kts 71°
2026-04-17 14:50 41.77402 20.95633 10285 ft 278 kts 71°
2026-04-17 14:50 41.77992 20.98030 10181 ft 269 kts 71°
2026-04-17 14:51 41.78566 21.00388 10085 ft 260 kts 71°
2026-04-17 14:51 41.79110 21.02623 9998 ft 250 kts 71°
2026-04-17 14:51 41.79645 21.04809 9913 ft 241 kts 71°
2026-04-17 14:51 41.80154 21.06883 9828 ft 231 kts 71°
2026-04-17 14:52 41.80644 21.08884 9737 ft 221 kts 71°
2026-04-17 14:52 41.81108 21.10803 9649 ft 213 kts 71°
2026-04-17 14:52 41.81556 21.12644 9564 ft 205 kts 71°
2026-04-17 14:52 41.81990 21.14445 9465 ft 198 kts 71°
2026-04-17 14:53 41.82415 21.16197 9279 ft 196 kts 71°
2026-04-17 14:53 41.82829 21.17922 9055 ft 196 kts 71°
2026-04-17 14:53 41.83241 21.19664 8829 ft 196 kts 71°
2026-04-17 14:53 41.83657 21.21416 8667 ft 198 kts 71°
2026-04-17 14:54 41.84112 21.23162 8593 ft 202 kts 69°
2026-04-17 14:54 41.84553 21.24971 8544 ft 204 kts 71°
2026-04-17 14:54 41.84959 21.26747 8429 ft 198 kts 71°
2026-04-17 14:54 41.85370 21.28523 8036 ft 204 kts 71°
2026-04-17 14:55 41.85807 21.30382 7597 ft 211 kts 71°
2026-04-17 14:55 41.86250 21.32266 7158 ft 217 kts 70°
2026-04-17 14:55 41.86713 21.34211 6733 ft 222 kts 70°
2026-04-17 14:55 41.87181 21.36189 6296 ft 222 kts 71°
2026-04-17 14:56 41.87638 21.38131 5863 ft 221 kts 71°
2026-04-17 14:56 41.88102 21.40101 5411 ft 220 kts 71°
2026-04-17 14:56 41.88559 21.42041 4976 ft 219 kts 70°
2026-04-17 14:56 41.89011 21.43959 4541 ft 218 kts 70°
2026-04-17 14:57 41.89460 21.45894 4164 ft 215 kts 70°
2026-04-17 14:57 41.89888 21.47740 4081 ft 201 kts 70°
2026-04-17 14:57 41.90294 21.49464 4085 ft 191 kts 70°
2026-04-17 14:57 41.90687 21.51127 4085 ft 186 kts 70°
2026-04-17 14:58 41.91095 21.52861 4096 ft 202 kts 70°
2026-04-17 14:58 41.91527 21.54688 4089 ft 215 kts 70°
2026-04-17 14:58 41.91980 21.56622 4080 ft 216 kts 70°
2026-04-17 14:58 41.92345 21.58592 4072 ft 218 kts 79°
2026-04-17 14:59 41.92214 21.60597 4071 ft 223 kts 104°
2026-04-17 14:59 41.91471 21.62442 4072 ft 228 kts 123°
2026-04-17 14:59 41.90361 21.64002 4072 ft 235 kts 140°
2026-04-17 14:59 41.88854 21.64937 4074 ft 246 kts 162°
2026-04-17 15:00 41.87147 21.65439 4072 ft 246 kts 167°
2026-04-17 15:00 41.85469 21.65912 4072 ft 247 kts 166°
2026-04-17 15:00 41.83802 21.66421 4075 ft 247 kts 165°
2026-04-17 15:00 41.82141 21.66978 4071 ft 245 kts 160°
2026-04-17 15:01 41.80732 21.68215 4065 ft 239 kts 127°
2026-04-17 15:01 41.80050 21.70187 4062 ft 233 kts 102°
2026-04-17 15:01 41.79593 21.72262 4055 ft 234 kts 107°
2026-04-17 15:01 41.78902 21.74234 4048 ft 236 kts 116°
2026-04-17 15:02 41.78039 21.76108 4042 ft 238 kts 124°
2026-04-17 15:02 41.76714 21.77465 4043 ft 246 kts 157°
2026-04-17 15:02 41.75017 21.77690 4044 ft 244 kts 187°
2026-04-17 15:02 41.73450 21.77056 4046 ft 228 kts 206°
2026-04-17 15:03 41.72240 21.75862 4041 ft 209 kts 233°
2026-04-17 15:03 41.71629 21.74208 4059 ft 191 kts 257°
2026-04-17 15:03 41.71392 21.72480 4063 ft 188 kts 271°
2026-04-17 15:03 41.71612 21.70804 4070 ft 182 kts 298°
2026-04-17 15:04 41.72273 21.69366 4072 ft 179 kts 313°
2026-04-17 15:04 41.73139 21.68219 4073 ft 175 kts 331°
2026-04-17 15:04 41.74255 21.67609 4072 ft 171 kts 351°
2026-04-17 15:04 41.75420 21.67469 4066 ft 169 kts
2026-04-17 15:05 41.76538 21.67971 4069 ft 168 kts 22°
2026-04-17 15:05 41.77682 21.68278 4068 ft 170 kts
2026-04-17 15:05 41.78863 21.68065 4072 ft 172 kts 352°
2026-04-17 15:05 41.80027 21.67719 4073 ft 172 kts 351°
2026-04-17 15:06 41.81195 21.67415 4067 ft 167 kts 354°
2026-04-17 15:06 41.82315 21.67160 4055 ft 160 kts 352°
2026-04-17 15:06 41.83394 21.66823 3946 ft 159 kts 347°
2026-04-17 15:06 41.84452 21.66371 3797 ft 160 kts 345°
2026-04-17 15:07 41.85471 21.65867 3627 ft 153 kts 343°
2026-04-17 15:07 41.86456 21.65458 3334 ft 145 kts 348°
2026-04-17 15:07 41.87424 21.65132 2940 ft 144 kts 350°
2026-04-17 15:07 41.88392 21.64831 2580 ft 141 kts 349°
2026-04-17 15:08 41.89318 21.64527 2298 ft 135 kts 347°
2026-04-17 15:08 41.90231 21.64172 2016 ft 138 kts 347°
2026-04-17 15:08 41.91163 21.63872 1719 ft 136 kts 349°
2026-04-17 15:08 41.92084 21.63581 1457 ft 135 kts 348°
2026-04-17 15:09 41.92971 21.63251 1277 ft 129 kts 348°
2026-04-17 15:09 41.93845 21.62963 1074 ft 130 kts 349°
2026-04-17 15:09 41.94723 21.62649 898 ft 129 kts 347°
2026-04-17 15:09 41.95572 21.62355 781 ft 119 kts 349°
2026-04-17 15:10 41.96240 21.62114 784 ft 81 kts 347°
2026-04-17 15:10 41.96713 21.61953 785 ft 58 kts 347°
2026-04-17 15:10 41.97058 21.61831 786 ft 39 kts 346°
2026-04-17 15:11 41.97139 21.61799 785 ft 15 kts 165°
2026-04-17 15:11 41.96979 21.61855 786 ft 32 kts 165°
2026-04-17 15:11 41.96726 21.61946 785 ft 37 kts 166°
2026-04-17 15:11 41.96473 21.62032 784 ft 37 kts 167°
2026-04-17 15:12 41.96227 21.62122 784 ft 36 kts 167°
2026-04-17 15:12 41.96011 21.62196 785 ft 14 kts 170°
2026-04-17 15:12 41.95983 21.62297 786 ft 11 kts 78°
2026-04-17 15:12 41.96002 21.62390 788 ft 8 kts 75°
2026-04-17 15:13 41.96014 21.62455 790 ft 5 kts 85°
2026-04-17 15:13 41.96017 21.62505 791 ft 8 kts 79°
2026-04-17 15:13 41.95990 21.62582 792 ft 11 kts 86°
2026-04-17 15:13 41.95994 21.62610 792 ft 0 kts 76°
2026-04-17 15:14 41.95995 21.62616 792 ft 0 kts 75°
2026-04-17 15:14 41.95995 21.62617 792 ft 0 kts 75°